• In Portugal
  • List of Countries
  • For 7 days
  • Water Temperature
  • Satellite Maps
  • Weather Map
  • Weather Widgets
  • user-avatar
    Login

    Hourly Weather Santiago del Estero

    Today, 24 February, Saturday

    Time Temperature Precipitation Wind Pressure Humidity
    00:00 +25°C° 0 mm 3 mps 742 mmHg 49%
    01:00 +25°C° 0 mm 3 mps 742 mmHg 50%
    02:00 +24°C° 0 mm 3 mps 743 mmHg 53%
    03:00 +24°C° 0 mm 3 mps 743 mmHg 55%
    04:00 +23°C° 0 mm 2 mps 743 mmHg 57%
    05:00 +23°C° 0 mm 2 mps 743 mmHg 58%
    06:00 +24°C° 0 mm 2 mps 743 mmHg 57%
    07:00 +25°C° 0 mm 2 mps 744 mmHg 56%
    08:00 +25°C° 0 mm 2 mps 744 mmHg 55%
    09:00 +27°C° 0 mm 2 mps 744 mmHg 50%
    10:00 +29°C° 0 mm 2 mps 744 mmHg 45%
    11:00 +31°C° 0 mm 2 mps 744 mmHg 39%
    12:00 +32°C° 0 mm 2 mps 744 mmHg 36%
    13:00 +35°C° 0 mm 2 mps 743 mmHg 33%
    14:00 +36°C° 0 mm 3 mps 743 mmHg 29%
    15:00 +36°C° 0 mm 3 mps 742 mmHg 30%
    16:00 +36°C° 0 mm 3 mps 742 mmHg 30%
    17:00 +36°C° 0 mm 3 mps 741 mmHg 30%
    18:00 +34°C° 0 mm 3 mps 742 mmHg 34%
    19:00 +31°C° 0 mm 2 mps 742 mmHg 37%
    20:00 +29°C° 0 mm 2 mps 742 mmHg 41%
    21:00 +28°C° 0 mm 2 mps 743 mmHg 42%
    22:00 +28°C° 0 mm 2 mps 743 mmHg 43%
    23:00 +27°C° 0 mm 2 mps 743 mmHg 44%

    Tomorrow, 25 February, Sunday

    Time Temperature Precipitation Wind Pressure Humidity
    00:00 +27°C° 0 mm 1 mps 743 mmHg 46%
    01:00 +26°C° 0 mm 1 mps 743 mmHg 48%
    02:00 +25°C° 0 mm 1 mps 743 mmHg 50%
    03:00 +25°C° 0 mm 1 mps 743 mmHg 53%
    04:00 +24°C° 0 mm 1 mps 743 mmHg 55%
    05:00 +23°C° 0 mm 1 mps 743 mmHg 57%
    06:00 +25°C° 0 mm 1 mps 743 mmHg 53%
    07:00 +27°C° 0 mm 1 mps 744 mmHg 49%
    08:00 +29°C° 0 mm 1 mps 744 mmHg 45%
    09:00 +30°C° 0 mm 2 mps 744 mmHg 40%
    10:00 +32°C° 0 mm 2 mps 744 mmHg 36%
    11:00 +35°C° 0 mm 3 mps 744 mmHg 32%
    12:00 +36°C° 0 mm 3 mps 743 mmHg 30%
    13:00 +37°C° 0 mm 3 mps 743 mmHg 29%
    14:00 +37°C° 0 mm 3 mps 742 mmHg 28%
    15:00 +37°C° 0 mm 3 mps 742 mmHg 28%
    16:00 +36°C° 0 mm 3 mps 741 mmHg 29%
    17:00 +36°C° 0 mm 3 mps 741 mmHg 30%
    18:00 +34°C° 0 mm 3 mps 741 mmHg 33%
    19:00 +32°C° 0 mm 2 mps 742 mmHg 36%
    20:00 +30°C° 0 mm 2 mps 742 mmHg 39%
    21:00 +29°C° 0 mm 2 mps 742 mmHg 41%
    22:00 +29°C° 0 mm 2 mps 743 mmHg 42%
    23:00 +28°C° 0 mm 1 mps 743 mmHg 44%

    Day after tomorrow, 26 February, Monday

    Time Temperature Precipitation Wind Pressure Humidity
    00:00 +28°C° 0 mm 1 mps 743 mmHg 45%
    01:00 +27°C° 0 mm 1 mps 743 mmHg 46%
    02:00 +27°C° 0 mm 1 mps 742 mmHg 47%
    03:00 +26°C° 0 mm 1 mps 742 mmHg 50%
    04:00 +25°C° 0 mm 1 mps 742 mmHg 53%
    05:00 +24°C° 0 mm 1 mps 742 mmHg 57%
    06:00 +26°C° 0.2 mm 1 mps 742 mmHg 53%
    07:00 +27°C° 0.2 mm 1 mps 743 mmHg 50%
    08:00 +29°C° 0.2 mm 1 mps 743 mmHg 47%
    09:00 +31°C° 0 mm 1 mps 743 mmHg 42%
    10:00 +33°C° 0 mm 1 mps 743 mmHg 36%
    11:00 +36°C° 0 mm 2 mps 743 mmHg 31%
    12:00 +37°C° 0 mm 2 mps 742 mmHg 29%
    13:00 +38°C° 0 mm 3 mps 741 mmHg 28%
    14:00 +38°C° 0 mm 3 mps 740 mmHg 27%
    15:00 +38°C° 0 mm 3 mps 739 mmHg 28%
    16:00 +37°C° 0 mm 3 mps 739 mmHg 30%
    17:00 +37°C° 0 mm 3 mps 738 mmHg 31%
    18:00 +35°C° 0 mm 3 mps 738 mmHg 34%
    19:00 +34°C° 0 mm 3 mps 739 mmHg 37%
    20:00 +31°C° 0 mm 3 mps 739 mmHg 40%
    21:00 +31°C° 0 mm 3 mps 739 mmHg 41%
    22:00 +31°C° 0 mm 3 mps 740 mmHg 42%
    23:00 +30°C° 0 mm 3 mps 740 mmHg 43%

    27 February, Tuesday

    Time Temperature Precipitation Wind Pressure Humidity
    00:00 +30°C° 0.1 mm 3 mps 740 mmHg 47%
    01:00 +29°C° 0.1 mm 3 mps 739 mmHg 50%
    02:00 +28°C° 0.1 mm 3 mps 739 mmHg 54%
    03:00 +28°C° 0.8 mm 2 mps 739 mmHg 59%
    04:00 +27°C° 0.8 mm 2 mps 739 mmHg 63%
    05:00 +26°C° 0.8 mm 2 mps 739 mmHg 68%
    06:00 +26°C° 0.5 mm 2 mps 739 mmHg 70%
    07:00 +26°C° 0.5 mm 1 mps 740 mmHg 71%
    08:00 +27°C° 0.5 mm 1 mps 740 mmHg 72%
    09:00 +27°C° 0.9 mm 2 mps 740 mmHg 74%
    10:00 +27°C° 0.9 mm 2 mps 740 mmHg 75%
    11:00 +27°C° 0.9 mm 3 mps 740 mmHg 77%
    12:00 +28°C° 0.8 mm 3 mps 739 mmHg 71%
    13:00 +29°C° 0.8 mm 4 mps 739 mmHg 65%
    14:00 +32°C° 0.8 mm 4 mps 738 mmHg 59%
    15:00 +30°C° 0.9 mm 4 mps 738 mmHg 59%
    16:00 +30°C° 0.9 mm 4 mps 738 mmHg 60%
    17:00 +30°C° 0.9 mm 4 mps 738 mmHg 60%
    18:00 +28°C° 0.8 mm 3 mps 738 mmHg 67%
    19:00 +26°C° 0.8 mm 3 mps 739 mmHg 75%
    20:00 +24°C° 0.8 mm 2 mps 739 mmHg 82%
    21:00 +24°C° 0.5 mm 2 mps 740 mmHg 84%
    22:00 +24°C° 0.5 mm 2 mps 740 mmHg 87%
    23:00 +23°C° 0.5 mm 1 mps 741 mmHg 89%

    28 February, Wednesday

    Time Temperature Precipitation Wind Pressure Humidity
    00:00 +23°C° 0.8 mm 1 mps 740 mmHg 90%
    01:00 +23°C° 0.8 mm 1 mps 740 mmHg 92%
    02:00 +23°C° 0.8 mm 1 mps 740 mmHg 93%
    03:00 +23°C° 0.9 mm 1 mps 740 mmHg 93%
    04:00 +23°C° 0.9 mm 1 mps 740 mmHg 93%
    05:00 +21°C° 0.9 mm 2 mps 740 mmHg 93%
    06:00 +23°C° 0.5 mm 2 mps 741 mmHg 89%
    07:00 +24°C° 0.5 mm 3 mps 742 mmHg 85%
    08:00 +25°C° 0.5 mm 3 mps 742 mmHg 81%
    09:00 +26°C° 0.4 mm 3 mps 742 mmHg 73%
    10:00 +28°C° 0.4 mm 3 mps 742 mmHg 66%
    11:00 +30°C° 0.4 mm 3 mps 742 mmHg 59%
    12:00 +30°C° 1.3 mm 3 mps 741 mmHg 59%
    13:00 +31°C° 1.3 mm 3 mps 741 mmHg 58%
    14:00 +31°C° 1.3 mm 3 mps 740 mmHg 58%
    15:00 +31°C° 2.2 mm 2 mps 740 mmHg 60%
    16:00 +30°C° 2.2 mm 2 mps 740 mmHg 62%
    17:00 +30°C° 2.2 mm 2 mps 740 mmHg 64%
    18:00 +28°C° 0.5 mm 2 mps 740 mmHg 69%
    19:00 +27°C° 0.5 mm 1 mps 741 mmHg 73%
    20:00 +26°C° 0.5 mm 1 mps 741 mmHg 78%
    21:00 +25°C° 1.4 mm 1 mps 741 mmHg 80%
    22:00 +25°C° 1.4 mm 2 mps 742 mmHg 82%
    23:00 +25°C° 1.4 mm 2 mps 742 mmHg 84%

    1 March, Thursday

    Time Temperature Precipitation Wind Pressure Humidity
    00:00 +24°C° 0.9 mm 2 mps 742 mmHg 85%
    01:00 +24°C° 0.9 mm 3 mps 742 mmHg 86%
    02:00 +24°C° 0.9 mm 3 mps 742 mmHg 87%
    03:00 +22°C° 0.1 mm 3 mps 742 mmHg 87%
    04:00 +22°C° 0.1 mm 4 mps 741 mmHg 87%
    05:00 +21°C° 0.1 mm 4 mps 741 mmHg 88%
    06:00 +22°C° 0 mm 4 mps 742 mmHg 85%
    07:00 +23°C° 0 mm 4 mps 742 mmHg 83%
    08:00 +23°C° 0 mm 4 mps 743 mmHg 81%
    09:00 +26°C° 0 mm 3 mps 743 mmHg 72%
    10:00 +28°C° 0 mm 3 mps 743 mmHg 64%
    11:00 +30°C° 0 mm 2 mps 743 mmHg 56%
    12:00 +31°C° 0 mm 2 mps 742 mmHg 52%
    13:00 +34°C° 0 mm 2 mps 741 mmHg 48%
    14:00 +34°C° 0 mm 1 mps 741 mmHg 45%
    15:00 +34°C° 0 mm 1 mps 740 mmHg 45%
    16:00 +34°C° 0 mm 1 mps 740 mmHg 45%
    17:00 +33°C° 0 mm 1 mps 739 mmHg 45%
    18:00 +32°C° 0 mm 1 mps 740 mmHg 50%
    19:00 +30°C° 0 mm 1 mps 740 mmHg 55%
    20:00 +27°C° 0 mm 0 mps 741 mmHg 60%
    21:00 +28°C° 0 mm 1 mps 741 mmHg 61%
    22:00 +28°C° 0 mm 2 mps 741 mmHg 63%
    23:00 +27°C° 0 mm 2 mps 742 mmHg 64%
    Show more